Location: Wald
(31.7579°N, 86.6655°W)
Time: 12:19:53
(UTC+00:00)

Cosmos 2151 - Pass Details

Date: 14 July 2020
Orbit: 580 x 602 km, 82.5° (Epoch: 08 August)

Event Time Altitude Azimuth Distance (km) Brightness Sun altitude
Exits shadow 03:43:44 35° 12° (NNE) 977 4.3 -28.4°
Drops below altitude 10° 03:46:13 10° 8° (N) 1,928 6.1 -28.7°
Sets 03:48:25 0° 8° (N) 2,829 7.1 -28.9°
